Location: Bruderhein
(53.8035°N, 112.9265°W)
Time: 01:07:33
(UTC+00:00)

Gurwin Techsat 1B - Pass Details

Date: 17 April 2024
Orbit: 811 x 812 km, 98.9° (Epoch: 20 May)

Event Time Altitude Azimuth Distance (km) Brightness Sun altitude
Rises 11:30:32 0° 15° (NNE) 3,350 12.6 -8.1°
Reaches altitude 10° 11:32:53 10° 15° (NNE) 2,414 11.8 -7.8°
Maximum altitude 11:38:14 85° 290° (WNW) 824 8.7 -7.1°
Drops below altitude 10° 11:43:33 10° 201° (SSW) 2,397 10.6 -6.4°
Sets 11:45:52 0° 201° (SSW) 3,324 11.3 -6.1°
